Weather History for KRYV - May, 2013

Change the Weather History Date:

Tuesday, May 21, 2013

  Actual Average Record
Temperature  
Mean Temperature 68 °F -  
Max Temperature 78 °F 72 °F 89 °F (1972)
Min Temperature 58 °F 48 °F 28 °F (2002)
Cooling Degree Days 3    
Growing Degree Days 18 (Base 50)    
Moisture  
Dew Point 59 °F    
Average Humidity 74    
Maximum Humidity 92    
Minimum Humidity 46    
Precipitation  
Precipitation 0.00 in - - ()
Sea Level Pressure  
Sea Level Pressure 29.65 in    
Wind  
Wind Speed 10 mph (SSW)    
Max Wind Speed 17 mph    
Max Gust Speed 25 mph    
Visibility 10 miles    
Events Rain    
Averages and records for this station are not official NWS values.
T = Trace of Precipitation, MM = Missing Value Source: NWS Daily Summary

Daily Weather History Graph

Daily Weather History Graph

Search for Another Location

Airport or City:

Trip Planner

Search our weather history database for the weather conditions in past years. The results will help you decide how hot, cold, wet, or windy it might be!

Date:

Astronomy

May. 21, 2013 Rise Set
Actual Time 5:25 AM CDT 8:18 PM CDT
Civil Twilight 4:51 AM CDT 8:51 PM CDT
Nautical Twilight 4:09 AM CDT 9:34 PM CDT
Astronomical Twilight 3:19 AM CDT 10:24 PM CDT
Moon 4:26 PM CDT (5/21) 2:59 AM CDT (5/21)
Length of Visible Light 16h 00m
Length of Day
14h 53m
Waxing Gibbous, 84% of the Moon is Illuminated
May 21
Waxing Gibbous
May 24
Full
May 31
Last Quarter
Jun 8
New
Jun 16
First Quarter

Hourly Weather History & Observations

Time (CDT) Temp. Dew Point Humidity Pressure Visibility Wind Dir Wind Speed Gust Speed Precip Events Conditions
12:15 AM 69.3 °F 60.3 °F 73% 29.64 in 10.0 mi SSE 15.0 mph 24.2 mph N/A Rain Light Rain
12:35 AM 67.3 °F 60.8 °F 80% 29.64 in 10.0 mi South 13.8 mph 23.0 mph N/A   Light Drizzle
12:55 AM 66.9 °F 59.9 °F 78% 29.66 in 10.0 mi South 12.7 mph 23.0 mph N/A   Scattered Clouds
1:15 AM 66.2 °F 59.9 °F 80% 29.65 in 10.0 mi SSE 9.2 mph - N/A   Scattered Clouds
1:35 AM 66.2 °F 59.4 °F 79% 29.66 in 10.0 mi SSW 11.5 mph - N/A   Clear
1:55 AM 66.2 °F 59.5 °F 79% 29.66 in 10.0 mi South 4.6 mph - N/A   Mostly Cloudy
2:15 AM 65.7 °F 59.5 °F 81% 29.65 in 10.0 mi SW 4.6 mph - N/A   Overcast
2:35 AM 64.8 °F 59.5 °F 83% 29.64 in 10.0 mi South 3.5 mph - N/A   Overcast
2:55 AM 64.8 °F 59.5 °F 83% 29.64 in 10.0 mi South 4.6 mph - N/A   Mostly Cloudy
3:15 AM 64.6 °F 60.1 °F 85% 29.63 in 10.0 mi South 8.1 mph - N/A   Scattered Clouds
3:35 AM 64.4 °F 60.3 °F 86% 29.62 in 10.0 mi South 9.2 mph - N/A   Clear
3:55 AM 63.9 °F 60.1 °F 87% 29.62 in 10.0 mi South 6.9 mph - N/A   Clear
4:15 AM 63.9 °F 59.7 °F 86% 29.62 in 10.0 mi South 9.2 mph - N/A   Clear
4:35 AM 64.2 °F 59.4 °F 84% 29.62 in 10.0 mi South 8.1 mph - N/A   Scattered Clouds
4:55 AM 64.4 °F 59.2 °F 83% 29.63 in 10.0 mi SSW 8.1 mph - N/A   Mostly Cloudy
5:15 AM 64.4 °F 59.4 °F 84% 29.64 in 10.0 mi South 8.1 mph - N/A   Overcast
5:35 AM 64.4 °F 59.5 °F 84% 29.65 in 10.0 mi SSW 9.2 mph 16.1 mph N/A   Overcast
5:55 AM 64.4 °F 59.5 °F 84% 29.65 in 10.0 mi SSW 10.4 mph - N/A   Overcast
6:15 AM 64.4 °F 59.7 °F 85% 29.66 in 10.0 mi SSW 16.1 mph 19.6 mph N/A   Overcast
6:35 AM 64.0 °F 59.5 °F 85% 29.65 in 10.0 mi SSW 8.1 mph - N/A   Overcast
6:55 AM 64.2 °F 59.7 °F 85% 29.66 in 10.0 mi SSW 8.1 mph - N/A   Overcast
7:15 AM 64.6 °F 59.7 °F 84% 29.66 in 10.0 mi South 10.4 mph 16.1 mph N/A   Mostly Cloudy
7:35 AM 64.9 °F 59.9 °F 84% 29.66 in 10.0 mi SSW 9.2 mph 16.1 mph N/A   Mostly Cloudy
7:55 AM 65.1 °F 59.9 °F 83% 29.66 in 10.0 mi South 9.2 mph - N/A   Mostly Cloudy
8:15 AM 66.7 °F 60.4 °F 80% 29.66 in 10.0 mi SSW 10.4 mph - N/A   Mostly Cloudy
8:35 AM 66.7 °F 60.6 °F 81% 29.66 in 10.0 mi South 11.5 mph - N/A   Overcast
8:55 AM 67.8 °F 61.3 °F 80% 29.67 in 10.0 mi South 11.5 mph - N/A   Overcast
9:15 AM 66.4 °F 60.1 °F 80% 29.66 in 10.0 mi SSW 11.5 mph - N/A   Overcast
9:35 AM 68.4 °F 61.3 °F 78% 29.67 in 10.0 mi South 9.2 mph - N/A   Overcast
9:55 AM 68.9 °F 61.5 °F 77% 29.66 in 10.0 mi South 11.5 mph 18.4 mph N/A   Overcast
10:15 AM 68.7 °F 61.3 °F 77% 29.67 in 10.0 mi South 11.5 mph 20.7 mph N/A   Overcast
10:35 AM 68.5 °F 61.0 °F 77% 29.67 in 10.0 mi South 11.5 mph 18.4 mph N/A   Overcast
10:55 AM 69.1 °F 61.3 °F 76% 29.66 in 10.0 mi South 9.2 mph - N/A   Overcast
11:15 AM 70.7 °F 61.3 °F 72% 29.65 in 10.0 mi SSE 13.8 mph - N/A   Scattered Clouds
11:35 AM 72.0 °F 62.1 °F 71% 29.65 in 10.0 mi South 9.2 mph 17.3 mph N/A   Clear
11:55 AM 73.4 °F 62.6 °F 69% 29.64 in 10.0 mi South 10.4 mph 18.4 mph N/A   Scattered Clouds
12:15 PM 73.6 °F 61.9 °F 67% 29.64 in 10.0 mi South 10.4 mph 16.1 mph N/A   Mostly Cloudy
12:35 PM 75.4 °F 61.7 °F 62% 29.63 in 10.0 mi South 11.5 mph 19.6 mph N/A   Scattered Clouds
12:55 PM 74.1 °F 62.1 °F 66% 29.62 in 10.0 mi South 12.7 mph - N/A   Mostly Cloudy
1:15 PM 76.6 °F 59.0 °F 54% 29.62 in 10.0 mi South 17.3 mph 25.3 mph N/A   Mostly Cloudy
1:55 PM 75.9 °F 59.0 °F 56% 29.63 in 10.0 mi SSW 16.1 mph 24.2 mph N/A   Mostly Cloudy
2:15 PM 78.3 °F 57.6 °F 49% 29.64 in 10.0 mi WSW 15.0 mph 23.0 mph N/A   Mostly Cloudy
3:35 PM 76.6 °F 56.1 °F 49% 29.64 in 10.0 mi SW 17.3 mph 23.0 mph N/A   Scattered Clouds
3:55 PM 78.1 °F 55.9 °F 46% 29.64 in 10.0 mi WSW 13.8 mph 23.0 mph N/A   Scattered Clouds
4:15 PM 77.7 °F 57.2 °F 49% 29.64 in 10.0 mi SW 15.0 mph 19.6 mph N/A   Scattered Clouds
4:35 PM 77.0 °F 56.3 °F 49% 29.64 in 10.0 mi WSW 13.8 mph 21.9 mph N/A   Scattered Clouds
4:55 PM 76.1 °F 56.3 °F 50% 29.65 in 10.0 mi SW 15.0 mph 20.7 mph N/A   Scattered Clouds
5:15 PM 75.2 °F 56.7 °F 52% 29.65 in 10.0 mi WSW 13.8 mph - N/A   Scattered Clouds
5:35 PM 74.5 °F 57.4 °F 55% 29.65 in 10.0 mi WSW 8.1 mph - N/A   Scattered Clouds
5:55 PM 73.9 °F 57.2 °F 56% 29.65 in 10.0 mi WSW 11.5 mph - N/A   Scattered Clouds
6:15 PM 74.5 °F 58.1 °F 57% 29.65 in 10.0 mi West 10.4 mph - N/A   Scattered Clouds
6:35 PM 72.9 °F 57.9 °F 59% 29.65 in 10.0 mi West 9.2 mph - N/A   Clear
6:55 PM 73.0 °F 57.9 °F 59% 29.66 in 10.0 mi West 6.9 mph - N/A   Scattered Clouds
7:15 PM 72.1 °F 57.7 °F 60% 29.66 in 10.0 mi WNW 5.8 mph - N/A   Scattered Clouds
7:35 PM 71.4 °F 57.4 °F 61% 29.66 in 10.0 mi WNW 4.6 mph - N/A   Clear
7:55 PM 70.2 °F 56.7 °F 62% 29.68 in 10.0 mi WNW 5.8 mph - N/A   Clear
8:15 PM 69.3 °F 56.7 °F 64% 29.68 in 10.0 mi Calm Calm - N/A   Clear
8:35 PM 68.4 °F 56.5 °F 66% 29.69 in 10.0 mi Calm Calm - N/A   Scattered Clouds
8:55 PM 64.0 °F 57.0 °F 78% 29.69 in 10.0 mi Calm Calm - N/A   Mostly Cloudy
9:15 PM 64.6 °F 56.8 °F 76% 29.69 in 10.0 mi Calm Calm - N/A   Overcast
9:35 PM 62.4 °F 57.2 °F 83% 29.70 in 10.0 mi Calm Calm - N/A   Mostly Cloudy
9:55 PM 60.4 °F 56.7 °F 87% 29.69 in 10.0 mi Calm Calm - N/A   Scattered Clouds
10:15 PM 61.5 °F 56.7 °F 84% 29.70 in 10.0 mi Calm Calm - N/A   Clear
10:35 PM 59.5 °F 56.1 °F 88% 29.69 in 10.0 mi Calm Calm - N/A   Clear
10:55 PM 59.2 °F 56.3 °F 90% 29.68 in 10.0 mi Calm Calm - N/A   Clear
11:15 PM 59.5 °F 56.3 °F 89% 29.68 in 10.0 mi Calm Calm - N/A   Clear
11:35 PM 58.5 °F 56.1 °F 92% 29.68 in 10.0 mi Calm Calm - N/A   Clear
11:55 PM 59.9 °F 56.3 °F 88% 29.68 in 10.0 mi Calm Calm - N/A   Clear